Time,TemperatureF,DewpointF,PressureIn,WindDirection,WindDirectionDegrees,WindSpeedMPH,WindSpeedGustMPH,Humidity,HourlyPrecipIn,Conditions,Clouds,dailyrainin,SoftwareType,DateUTC
2013-09-20 00:00:00,56.2,37.0,29.87,NW,315,0.0,0.0,49,0.00,,,0.00,WUHU216HW,2013-09-20 04:00:00,
2013-09-20 00:01:00,56.2,37.0,29.86,NW,315,0.0,0.0,49,0.00,,,0.00,WUHU216HW,2013-09-20 04:01:00,
2013-09-20 00:06:00,56.2,37.0,29.86,NW,315,0.0,0.0,49,0.00,,,0.00,WUHU216HW,2013-09-20 04:06:00,
2013-09-20 00:11:00,56.0,36.8,29.86,NW,315,0.0,0.0,49,0.00,,,0.00,WUHU216HW,2013-09-20 04:11:00,
2013-09-20 00:16:00,55.8,36.6,29.86,NW,315,0.0,0.0,49,0.00,,,0.00,WUHU216HW,2013-09-20 04:16:00,
2013-09-20 00:21:00,55.8,36.6,29.86,NW,315,0.0,0.0,49,0.00,,,0.00,WUHU216HW,2013-09-20 04:21:00,
2013-09-20 00:26:00,55.4,36.2,29.86,NW,315,0.0,0.0,49,0.00,,,0.00,WUHU216HW,2013-09-20 04:26:00,
2013-09-20 00:31:00,55.4,36.2,29.85,NW,315,0.0,0.0,49,0.00,,,0.00,WUHU216HW,2013-09-20 04:31:00,
2013-09-20 00:36:00,55.3,36.1,29.86,NW,315,0.0,0.0,49,0.00,,,0.00,WUHU216HW,2013-09-20 04:36:00,
2013-09-20 00:41:00,55.1,36.0,29.86,NW,315,0.0,0.0,49,0.00,,,0.00,WUHU216HW,2013-09-20 04:41:00,
2013-09-20 00:46:00,55.1,36.0,29.86,NW,315,0.0,0.0,49,0.00,,,0.00,WUHU216HW,2013-09-20 04:46:00,
2013-09-20 00:51:00,54.7,35.6,29.85,NW,315,0.0,0.0,49,0.00,,,0.00,WUHU216HW,2013-09-20 04:51:00,
2013-09-20 00:56:00,54.5,35.4,29.85,NW,315,0.0,0.0,49,0.00,,,0.00,WUHU216HW,2013-09-20 04:56:00,
2013-09-20 01:01:00,54.4,35.3,29.86,NW,315,0.0,0.0,49,0.00,,,0.00,WUHU216HW,2013-09-20 05:01:00,
2013-09-20 01:06:00,54.4,35.3,29.85,NW,315,0.0,0.0,49,0.00,,,0.00,WUHU216HW,2013-09-20 05:06:00,
2013-09-20 01:11:00,54.4,34.8,29.85,NW,315,0.0,0.0,48,0.00,,,0.00,WUHU216HW,2013-09-20 05:11:00,
2013-09-20 01:16:00,54.2,35.1,29.85,NW,315,0.0,0.0,49,0.00,,,0.00,WUHU216HW,2013-09-20 05:16:00,
2013-09-20 01:21:00,54.0,34.4,29.85,NW,315,0.0,0.0,48,0.00,,,0.00,WUHU216HW,2013-09-20 05:21:00,
2013-09-20 01:26:00,53.8,34.2,29.86,NW,315,0.0,0.0,48,0.00,,,0.00,WUHU216HW,2013-09-20 05:26:00,
2013-09-20 01:31:00,53.6,34.1,29.85,NW,315,0.4,0.4,48,0.00,,,0.00,WUHU216HW,2013-09-20 05:31:00,
2013-09-20 01:36:00,53.6,34.1,29.86,NW,315,0.7,0.7,48,0.00,,,0.00,WUHU216HW,2013-09-20 05:36:00,
2013-09-20 01:41:00,53.5,34.0,29.86,NW,315,0.0,0.7,48,0.00,,,0.00,WUHU216HW,2013-09-20 05:41:00,
2013-09-20 01:46:00,53.3,33.8,29.86,NW,315,0.0,0.0,48,0.00,,,0.00,WUHU216HW,2013-09-20 05:46:00,
2013-09-20 01:51:00,53.3,33.8,29.87,NW,315,1.1,1.1,48,0.00,,,0.00,WUHU216HW,2013-09-20 05:51:00,
2013-09-20 01:56:00,52.9,33.4,29.87,WNW,293,0.6,1.1,48,0.00,,,0.00,WUHU216HW,2013-09-20 05:56:00,
2013-09-20 02:01:00,52.9,33.4,29.86,WNW,293,0.0,1.1,48,0.00,,,0.00,WUHU216HW,2013-09-20 06:01:00,
2013-09-20 02:06:00,52.7,33.2,29.86,WNW,293,0.0,0.0,48,0.00,,,0.00,WUHU216HW,2013-09-20 06:06:00,
2013-09-20 02:11:00,52.7,33.2,29.86,WNW,293,0.0,0.0,48,0.00,,,0.00,WUHU216HW,2013-09-20 06:11:00,
2013-09-20 02:16:00,52.6,32.6,29.85,WNW,293,0.0,0.0,47,0.00,,,0.00,WUHU216HW,2013-09-20 06:16:00,
2013-09-20 02:21:00,52.6,32.6,29.86,SE,135,0.0,0.0,47,0.00,,,0.00,WUHU216HW,2013-09-20 06:21:00,
2013-09-20 02:26:00,52.6,32.6,29.86,SE,135,0.0,0.0,47,0.00,,,0.00,WUHU216HW,2013-09-20 06:26:00,
2013-09-20 02:31:00,52.4,32.4,29.86,NNW,338,0.0,0.0,47,0.00,,,0.00,WUHU216HW,2013-09-20 06:31:00,
2013-09-20 02:36:00,52.4,32.4,29.86,NNW,338,0.0,0.0,47,0.00,,,0.00,WUHU216HW,2013-09-20 06:36:00,
2013-09-20 02:41:00,52.2,32.3,29.85,NNW,338,0.0,0.0,47,0.00,,,0.00,WUHU216HW,2013-09-20 06:41:00,
2013-09-20 02:46:00,52.2,32.3,29.85,NNW,338,0.0,0.0,47,0.00,,,0.00,WUHU216HW,2013-09-20 06:46:00,
2013-09-20 02:51:00,52.0,32.1,29.86,NNW,338,0.0,0.0,47,0.00,,,0.00,WUHU216HW,2013-09-20 06:51:00,
2013-09-20 02:56:00,51.8,31.9,29.86,NNW,338,0.0,0.0,47,0.00,,,0.00,WUHU216HW,2013-09-20 06:56:00,
2013-09-20 03:01:00,51.8,31.9,29.86,NNW,338,0.0,0.0,47,0.00,,,0.00,WUHU216HW,2013-09-20 07:01:00,
2013-09-20 03:06:00,51.7,31.8,29.86,NNW,338,0.2,0.2,47,0.00,,,0.00,WUHU216HW,2013-09-20 07:06:00,
2013-09-20 03:11:00,51.5,31.6,29.86,NNW,338,0.0,0.7,47,0.00,,,0.00,WUHU216HW,2013-09-20 07:11:00,
2013-09-20 03:16:00,51.5,31.6,29.86,NNW,338,0.0,0.7,47,0.00,,,0.00,WUHU216HW,2013-09-20 07:16:00,
2013-09-20 03:21:00,51.3,31.4,29.86,NNW,338,0.0,0.0,47,0.00,,,0.00,WUHU216HW,2013-09-20 07:21:00,
2013-09-20 03:26:00,51.1,31.2,29.86,NNW,338,0.0,0.0,47,0.00,,,0.00,WUHU216HW,2013-09-20 07:26:00,
2013-09-20 03:31:00,51.1,31.2,29.86,NNW,338,0.0,0.0,47,0.00,,,0.00,WUHU216HW,2013-09-20 07:31:00,
2013-09-20 03:36:00,50.9,31.1,29.86,NNW,338,0.0,0.0,47,0.00,,,0.00,WUHU216HW,2013-09-20 07:36:00,
2013-09-20 03:41:00,50.9,31.1,29.86,NNW,338,0.0,0.0,47,0.00,,,0.00,WUHU216HW,2013-09-20 07:41:00,
2013-09-20 03:46:00,50.8,31.0,29.86,NNW,338,0.0,0.0,47,0.00,,,0.00,WUHU216HW,2013-09-20 07:46:00,
2013-09-20 03:51:00,50.8,31.0,29.86,NNW,338,0.0,0.0,47,0.00,,,0.00,WUHU216HW,2013-09-20 07:51:00,
2013-09-20 03:56:00,50.6,30.8,29.86,NNW,338,0.0,0.0,47,0.00,,,0.00,WUHU216HW,2013-09-20 07:56:00,
2013-09-20 04:01:00,50.6,30.8,29.86,NW,315,0.7,0.7,47,0.00,,,0.00,WUHU216HW,2013-09-20 08:01:00,
2013-09-20 04:06:00,50.4,30.6,29.86,NW,315,0.0,0.7,47,0.00,,,0.00,WUHU216HW,2013-09-20 08:06:00,
2013-09-20 04:11:00,50.4,30.6,29.86,NW,315,0.0,0.7,47,0.00,,,0.00,WUHU216HW,2013-09-20 08:11:00,
2013-09-20 04:16:00,50.4,30.6,29.86,NW,315,0.0,0.0,47,0.00,,,0.00,WUHU216HW,2013-09-20 08:16:00,
2013-09-20 04:21:00,50.2,30.4,29.86,NW,315,0.0,0.0,47,0.00,,,0.00,WUHU216HW,2013-09-20 08:21:00,
2013-09-20 04:26:00,50.2,30.4,29.86,South,180,0.6,0.7,47,0.00,,,0.00,WUHU216HW,2013-09-20 08:26:00,
2013-09-20 04:31:00,50.0,30.2,29.85,SSE,158,0.0,0.7,47,0.00,,,0.00,WUHU216HW,2013-09-20 08:31:00,
2013-09-20 04:36:00,50.0,30.2,29.85,SSE,158,0.0,0.4,47,0.00,,,0.00,WUHU216HW,2013-09-20 08:36:00,
2013-09-20 04:41:00,50.0,30.2,29.85,SSE,158,0.0,0.0,47,0.00,,,0.00,WUHU216HW,2013-09-20 08:41:00,
2013-09-20 04:46:00,49.9,30.1,29.85,NW,315,0.0,0.0,47,0.00,,,0.00,WUHU216HW,2013-09-20 08:46:00,
2013-09-20 04:51:00,49.9,30.1,29.85,NW,315,0.0,0.0,47,0.00,,,0.00,WUHU216HW,2013-09-20 08:51:00,
2013-09-20 04:56:00,49.7,30.0,29.84,NW,315,0.4,0.4,47,0.00,,,0.00,WUHU216HW,2013-09-20 08:56:00,
2013-09-20 05:01:00,49.7,30.0,29.84,NNW,338,0.0,0.4,47,0.00,,,0.00,WUHU216HW,2013-09-20 09:01:00,
2013-09-20 05:06:00,49.5,29.8,29.85,NNW,338,0.0,0.4,47,0.00,,,0.00,WUHU216HW,2013-09-20 09:06:00,
2013-09-20 05:11:00,49.3,29.6,29.85,NNW,338,0.0,0.0,47,0.00,,,0.00,WUHU216HW,2013-09-20 09:11:00,
2013-09-20 05:16:00,49.3,29.6,29.85,NNW,338,0.0,0.0,47,0.00,,,0.00,WUHU216HW,2013-09-20 09:16:00,
2013-09-20 05:21:00,49.1,29.4,29.85,NNW,338,0.0,0.0,47,0.00,,,0.00,WUHU216HW,2013-09-20 09:21:00,
2013-09-20 05:26:00,49.0,29.3,29.85,NNW,338,0.0,0.0,47,0.00,,,0.00,WUHU216HW,2013-09-20 09:26:00,
2013-09-20 05:31:00,49.0,29.3,29.85,North,0,0.4,0.9,47,0.00,,,0.00,WUHU216HW,2013-09-20 09:31:00,
2013-09-20 05:36:00,49.0,29.3,29.85,NNW,338,0.4,0.9,47,0.00,,,0.00,WUHU216HW,2013-09-20 09:36:00,
2013-09-20 05:41:00,48.8,29.1,29.86,NNW,338,0.0,0.7,47,0.00,,,0.00,WUHU216HW,2013-09-20 09:41:00,
2013-09-20 05:46:00,48.8,28.6,29.86,NNW,338,0.4,0.4,46,0.00,,,0.00,WUHU216HW,2013-09-20 09:46:00,
2013-09-20 05:51:00,48.6,28.4,29.86,NNW,338,0.0,0.7,46,0.00,,,0.00,WUHU216HW,2013-09-20 09:51:00,
2013-09-20 05:56:00,48.6,28.4,29.86,NNW,338,0.0,0.7,46,0.00,,,0.00,WUHU216HW,2013-09-20 09:56:00,
2013-09-20 06:01:00,48.6,28.4,29.86,NNW,338,0.0,0.0,46,0.00,,,0.00,WUHU216HW,2013-09-20 10:01:00,
2013-09-20 06:06:00,48.6,28.9,29.86,NNW,338,0.0,0.0,47,0.00,,,0.00,WUHU216HW,2013-09-20 10:06:00,
2013-09-20 06:11:00,48.6,28.4,29.86,NE,45,0.0,0.0,46,0.00,,,0.00,WUHU216HW,2013-09-20 10:11:00,
2013-09-20 06:17:00,48.4,28.2,29.86,NE,45,0.0,0.0,46,0.00,,,0.00,WUHU216HW,2013-09-20 10:17:00,
2013-09-20 06:22:00,48.4,28.2,29.86,NE,45,0.0,0.0,46,0.00,,,0.00,WUHU216HW,2013-09-20 10:22:00,
2013-09-20 06:27:00,48.4,28.2,29.87,NE,45,0.0,0.0,46,0.00,,,0.00,WUHU216HW,2013-09-20 10:27:00,
2013-09-20 06:32:00,48.2,28.1,29.86,NE,45,0.0,0.0,46,0.00,,,0.00,WUHU216HW,2013-09-20 10:32:00,
2013-09-20 06:37:00,48.2,28.1,29.88,NNE,23,0.8,1.1,46,0.00,,,0.00,WUHU216HW,2013-09-20 10:37:00,
2013-09-20 06:42:00,48.2,28.6,29.88,North,0,0.0,1.1,47,0.00,,,0.00,WUHU216HW,2013-09-20 10:42:00,
2013-09-20 06:47:00,48.1,28.5,29.88,North,0,0.0,0.4,47,0.00,,,0.00,WUHU216HW,2013-09-20 10:47:00,
2013-09-20 06:52:00,47.9,27.8,29.88,North,0,0.0,0.0,46,0.00,,,0.00,WUHU216HW,2013-09-20 10:52:00,
2013-09-20 06:57:00,47.9,27.8,29.88,North,0,0.0,0.0,46,0.00,,,0.00,WUHU216HW,2013-09-20 10:57:00,
2013-09-20 07:02:00,47.9,27.8,29.88,NNW,338,0.9,0.9,46,0.00,,,0.00,WUHU216HW,2013-09-20 11:02:00,
2013-09-20 07:07:00,47.7,27.6,29.88,NNW,338,0.6,1.1,46,0.00,,,0.00,WUHU216HW,2013-09-20 11:07:00,
2013-09-20 07:12:00,47.7,27.6,29.88,NNW,338,0.0,1.1,46,0.00,,,0.00,WUHU216HW,2013-09-20 11:12:00,
2013-09-20 07:17:00,47.7,27.1,29.88,NNW,338,0.0,0.0,45,0.00,,,0.00,WUHU216HW,2013-09-20 11:17:00,
2013-09-20 07:22:00,47.5,26.9,29.89,NNW,338,0.0,0.0,45,0.00,,,0.00,WUHU216HW,2013-09-20 11:22:00,
2013-09-20 07:27:00,47.7,26.5,29.89,NNW,338,0.4,0.7,44,0.00,,,0.00,WUHU216HW,2013-09-20 11:27:00,
2013-09-20 07:32:00,47.5,26.4,29.89,NNW,338,0.2,0.7,44,0.00,,,0.00,WUHU216HW,2013-09-20 11:32:00,
2013-09-20 07:37:00,47.7,26.0,29.89,North,0,0.0,0.2,43,0.00,,,0.00,WUHU216HW,2013-09-20 11:37:00,
2013-09-20 07:42:00,47.9,25.6,29.89,North,0,0.0,0.0,42,0.00,,,0.00,WUHU216HW,2013-09-20 11:42:00,
2013-09-20 07:47:00,48.1,25.8,29.89,North,0,0.0,0.0,42,0.00,,,0.00,WUHU216HW,2013-09-20 11:47:00,
2013-09-20 07:52:00,48.2,25.9,29.88,North,0,0.0,0.0,42,0.00,,,0.00,WUHU216HW,2013-09-20 11:52:00,
2013-09-20 07:57:00,48.2,25.9,29.88,North,0,0.0,0.0,42,0.00,,,0.00,WUHU216HW,2013-09-20 11:57:00,
2013-09-20 08:02:00,48.4,26.1,29.88,North,0,0.0,0.0,42,0.00,,,0.00,WUHU216HW,2013-09-20 12:02:00,
2013-09-20 08:07:00,48.4,25.5,29.88,North,0,0.0,0.0,41,0.00,,,0.00,WUHU216HW,2013-09-20 12:07:00,
2013-09-20 08:12:00,48.6,25.1,29.88,North,0,0.0,0.0,40,0.00,,,0.00,WUHU216HW,2013-09-20 12:12:00,
2013-09-20 08:17:00,48.6,23.9,29.88,North,0,0.0,0.0,38,0.00,,,0.00,WUHU216HW,2013-09-20 12:17:00,
2013-09-20 08:22:00,48.8,23.5,29.88,North,0,0.0,0.0,37,0.00,,,0.00,WUHU216HW,2013-09-20 12:22:00,
2013-09-20 08:27:00,49.1,23.1,29.88,North,0,0.0,0.0,36,0.00,,,0.00,WUHU216HW,2013-09-20 12:27:00,
2013-09-20 08:32:00,49.3,23.3,29.88,North,0,0.0,0.0,36,0.00,,,0.00,WUHU216HW,2013-09-20 12:32:00,
2013-09-20 08:37:00,50.0,21.3,29.88,North,0,0.0,0.0,32,0.00,,,0.00,WUHU216HW,2013-09-20 12:37:00,
2013-09-20 08:42:00,50.8,22.0,29.88,North,0,0.0,0.0,32,0.00,,,0.00,WUHU216HW,2013-09-20 12:42:00,
2013-09-20 08:47:00,51.3,21.7,29.88,North,0,0.0,0.0,31,0.00,,,0.00,WUHU216HW,2013-09-20 12:47:00,
2013-09-20 08:52:00,51.8,21.4,29.89,North,0,0.0,0.0,30,0.00,,,0.00,WUHU216HW,2013-09-20 12:52:00,
2013-09-20 08:57:00,52.6,21.4,29.89,NW,325,1.0,1.1,30,0.00,,,0.00,WUHU216HW,2013-09-20 12:57:00,
2013-09-20 09:02:00,53.1,21.8,29.89,NNW,338,1.1,2.0,30,0.00,,,0.00,WUHU216HW,2013-09-20 13:02:00,
2013-09-20 09:07:00,53.6,22.2,29.89,NE,45,1.1,3.1,30,0.00,,,0.00,WUHU216HW,2013-09-20 13:07:00,
2013-09-20 09:12:00,54.4,22.2,29.89,WSW,248,0.9,3.1,29,0.00,,,0.00,WUHU216HW,2013-09-20 13:12:00,
2013-09-20 09:17:00,54.5,23.0,29.89,North,351,1.5,2.2,30,0.00,,,0.00,WUHU216HW,2013-09-20 13:17:00,
2013-09-20 09:22:00,54.9,22.6,29.89,West,270,2.0,2.0,29,0.00,,,0.00,WUHU216HW,2013-09-20 13:22:00,
2013-09-20 09:27:00,56.0,22.8,29.89,West,272,1.1,2.9,28,0.00,,,0.00,WUHU216HW,2013-09-20 13:27:00,
2013-09-20 09:32:00,56.3,23.0,29.89,NW,319,0.6,2.9,28,0.00,,,0.00,WUHU216HW,2013-09-20 13:32:00,
2013-09-20 09:37:00,56.3,23.8,29.89,West,270,0.4,2.2,29,0.00,,,0.00,WUHU216HW,2013-09-20 13:37:00,
2013-09-20 09:42:00,56.5,24.8,29.89,North,0,0.0,1.6,30,0.00,,,0.00,WUHU216HW,2013-09-20 13:42:00,
2013-09-20 09:47:00,56.5,24.8,29.90,West,270,1.3,1.3,30,0.00,,,0.00,WUHU216HW,2013-09-20 13:47:00,
2013-09-20 09:52:00,56.9,25.1,29.89,SW,225,1.1,1.3,30,0.00,,,0.00,WUHU216HW,2013-09-20 13:52:00,
2013-09-20 09:57:00,57.4,25.5,29.89,NNW,348,1.9,2.0,30,0.00,,,0.00,WUHU216HW,2013-09-20 13:57:00,
2013-09-20 10:02:00,57.8,25.9,29.89,NW,315,1.9,2.5,30,0.00,,,0.00,WUHU216HW,2013-09-20 14:02:00,
2013-09-20 10:07:00,58.3,27.1,29.89,NW,315,2.0,2.5,30,0.00,,,0.00,WUHU216HW,2013-09-20 14:07:00,
2013-09-20 10:12:00,58.7,27.4,29.89,NE,45,1.3,2.7,30,0.00,,,0.00,WUHU216HW,2013-09-20 14:12:00,
2013-09-20 10:17:00,59.2,28.6,29.89,SSE,158,0.4,2.7,31,0.00,,,0.00,WUHU216HW,2013-09-20 14:17:00,
2013-09-20 10:22:00,59.4,28.8,29.89,NW,315,0.0,2.2,31,0.00,,,0.00,WUHU216HW,2013-09-20 14:22:00,
2013-09-20 10:27:00,59.8,29.9,29.89,NNE,23,1.3,1.3,32,0.00,,,0.00,WUHU216HW,2013-09-20 14:27:00,
2013-09-20 10:32:00,60.1,30.1,29.90,NNE,23,1.8,3.4,32,0.00,,,0.00,WUHU216HW,2013-09-20 14:32:00,
2013-09-20 10:37:00,60.3,31.0,29.90,WNW,293,1.8,3.4,33,0.00,,,0.00,WUHU216HW,2013-09-20 14:37:00,
2013-09-20 10:42:00,60.8,32.2,29.90,West,266,1.2,2.0,34,0.00,,,0.00,WUHU216HW,2013-09-20 14:42:00,
2013-09-20 10:47:00,61.2,33.2,29.89,SSE,158,0.0,2.0,35,0.00,,,0.00,WUHU216HW,2013-09-20 14:47:00,
2013-09-20 10:52:00,61.4,33.4,29.90,SE,135,0.0,0.0,35,0.00,,,0.00,WUHU216HW,2013-09-20 14:52:00,
2013-09-20 10:57:00,61.6,33.6,29.90,SSW,203,0.2,0.2,35,0.00,,,0.00,WUHU216HW,2013-09-20 14:57:00,
2013-09-20 11:02:00,61.7,34.3,29.89,WSW,248,1.3,1.3,36,0.00,,,0.00,WUHU216HW,2013-09-20 15:02:00,
2013-09-20 11:07:00,62.3,36.2,29.90,SSW,206,0.7,1.3,38,0.00,,,0.00,WUHU216HW,2013-09-20 15:07:00,
2013-09-20 11:12:00,63.4,38.4,29.89,NW,326,2.1,2.5,40,0.00,,,0.00,WUHU216HW,2013-09-20 15:12:00,
2013-09-20 11:17:00,64.3,39.9,29.89,WSW,256,1.2,2.5,41,0.00,,,0.00,WUHU216HW,2013-09-20 15:17:00,
2013-09-20 11:22:00,64.8,40.9,29.89,NE,45,2.5,2.5,42,0.00,,,0.00,WUHU216HW,2013-09-20 15:22:00,
2013-09-20 11:27:00,65.5,42.7,29.89,NE,45,1.3,2.5,44,0.00,,,0.00,WUHU216HW,2013-09-20 15:27:00,
2013-09-20 11:32:00,65.9,43.1,29.89,WSW,248,0.7,2.2,44,0.00,,,0.00,WUHU216HW,2013-09-20 15:32:00,
2013-09-20 11:37:00,66.1,43.9,29.89,ESE,113,0.4,2.2,45,0.00,,,0.00,WUHU216HW,2013-09-20 15:37:00,
2013-09-20 11:42:00,66.6,44.3,29.88,WNW,293,1.1,1.3,45,0.00,,,0.00,WUHU216HW,2013-09-20 15:42:00,
2013-09-20 11:47:00,66.6,44.3,29.88,SE,135,1.8,1.8,45,0.00,,,0.00,WUHU216HW,2013-09-20 15:47:00,
2013-09-20 11:52:00,67.0,46.4,29.88,SE,135,0.0,1.8,48,0.00,,,0.00,WUHU216HW,2013-09-20 15:52:00,
2013-09-20 11:57:00,67.3,46.7,29.88,SE,135,1.1,1.8,48,0.00,,,0.00,WUHU216HW,2013-09-20 15:57:00,
2013-09-20 12:02:00,67.5,47.4,29.88,SE,135,0.0,1.8,49,0.00,,,0.00,WUHU216HW,2013-09-20 16:02:00,
2013-09-20 12:07:00,67.9,49.3,29.87,NE,45,0.4,1.8,51,0.00,,,0.00,WUHU216HW,2013-09-20 16:07:00,
2013-09-20 12:12:00,68.0,49.4,29.87,NW,316,0.6,0.9,51,0.00,,,0.00,WUHU216HW,2013-09-20 16:12:00,
2013-09-20 12:17:00,68.2,50.1,29.87,West,276,1.0,1.1,52,0.00,,,0.00,WUHU216HW,2013-09-20 16:17:00,
2013-09-20 12:22:00,68.8,52.1,29.86,NNE,23,2.5,2.5,55,0.00,,,0.00,WUHU216HW,2013-09-20 16:22:00,
2013-09-20 12:27:00,69.3,52.1,29.87,WNW,293,1.8,2.5,54,0.00,,,0.00,WUHU216HW,2013-09-20 16:27:00,
2013-09-20 12:32:00,69.5,52.8,29.86,ESE,113,1.6,1.8,55,0.00,,,0.00,WUHU216HW,2013-09-20 16:32:00,
2013-09-20 12:37:00,69.8,53.1,29.86,NNE,23,1.5,2.0,55,0.00,,,0.00,WUHU216HW,2013-09-20 16:37:00,
2013-09-20 12:42:00,70.2,53.9,29.86,ENE,72,0.4,3.4,56,0.00,,,0.00,WUHU216HW,2013-09-20 16:42:00,
2013-09-20 12:47:00,70.6,54.3,29.86,SW,225,0.6,3.4,56,0.00,,,0.00,WUHU216HW,2013-09-20 16:47:00,
2013-09-20 12:52:00,70.7,54.4,29.86,West,270,1.3,1.3,56,0.00,,,0.00,WUHU216HW,2013-09-20 16:52:00,
2013-09-20 12:57:00,70.9,55.5,29.86,NE,45,1.3,1.3,58,0.00,,,0.00,WUHU216HW,2013-09-20 16:57:00,
2013-09-20 13:02:00,71.3,55.9,29.86,WSW,248,3.1,3.1,58,0.00,,,0.00,WUHU216HW,2013-09-20 17:02:00,
2013-09-20 13:07:00,71.8,55.9,29.86,WSW,248,5.1,5.1,57,0.00,,,0.00,WUHU216HW,2013-09-20 17:07:00,
2013-09-20 13:12:00,72.5,56.6,29.86,West,270,2.0,5.1,57,0.00,,,0.00,WUHU216HW,2013-09-20 17:12:00,
2013-09-20 13:17:00,72.7,56.8,29.86,NW,325,2.2,4.3,57,0.00,,,0.00,WUHU216HW,2013-09-20 17:17:00,
2013-09-20 13:22:00,72.9,56.9,29.86,WNW,300,0.3,3.4,57,0.00,,,0.00,WUHU216HW,2013-09-20 17:22:00,
2013-09-20 13:27:00,72.9,56.9,29.85,SE,135,1.1,2.7,57,0.00,,,0.00,WUHU216HW,2013-09-20 17:27:00,
2013-09-20 13:32:00,72.9,56.9,29.85,WSW,253,3.0,4.3,57,0.00,,,0.00,WUHU216HW,2013-09-20 17:32:00,
2013-09-20 13:37:00,72.9,57.4,29.85,East,90,1.3,4.3,58,0.00,,,0.00,WUHU216HW,2013-09-20 17:37:00,
2013-09-20 13:42:00,73.1,57.1,29.84,West,266,1.1,3.4,57,0.00,,,0.00,WUHU216HW,2013-09-20 17:42:00,
2013-09-20 13:47:00,73.4,57.4,29.84,NE,45,1.1,3.4,57,0.00,,,0.00,WUHU216HW,2013-09-20 17:47:00,
2013-09-20 13:52:00,73.4,57.4,29.84,NNE,25,1.0,3.8,57,0.00,,,0.00,WUHU216HW,2013-09-20 17:52:00,
2013-09-20 13:57:00,73.8,57.8,29.84,NNE,12,0.6,3.8,57,0.00,,,0.00,WUHU216HW,2013-09-20 17:57:00,
2013-09-20 14:02:00,73.8,57.8,29.84,WSW,248,0.0,2.0,57,0.00,,,0.00,WUHU216HW,2013-09-20 18:02:00,
2013-09-20 14:07:00,73.8,57.8,29.83,West,270,2.0,2.0,57,0.00,,,0.00,WUHU216HW,2013-09-20 18:07:00,
2013-09-20 14:12:00,73.8,57.8,29.83,North,0,0.7,2.0,57,0.00,,,0.00,WUHU216HW,2013-09-20 18:12:00,
2013-09-20 14:17:00,73.8,57.8,29.83,NNW,338,0.7,1.8,57,0.00,,,0.00,WUHU216HW,2013-09-20 18:17:00,
2013-09-20 14:22:00,74.0,58.0,29.83,SSE,147,1.2,1.3,57,0.00,,,0.00,WUHU216HW,2013-09-20 18:22:00,
2013-09-20 14:27:00,74.0,58.0,29.83,SSW,203,1.3,1.3,57,0.00,,,0.00,WUHU216HW,2013-09-20 18:27:00,
2013-09-20 14:32:00,74.0,58.0,29.83,East,83,0.6,1.3,57,0.00,,,0.00,WUHU216HW,2013-09-20 18:32:00,
2013-09-20 14:37:00,74.2,58.2,29.83,SSE,158,0.4,1.1,57,0.00,,,0.00,WUHU216HW,2013-09-20 18:37:00,
2013-09-20 14:42:00,74.3,58.3,29.82,SE,135,1.3,1.6,57,0.00,,,0.00,WUHU216HW,2013-09-20 18:42:00,
2013-09-20 14:47:00,74.3,58.3,29.82,SE,135,0.9,1.6,57,0.00,,,0.00,WUHU216HW,2013-09-20 18:47:00,
2013-09-20 14:52:00,74.5,58.4,29.82,SE,126,1.5,1.8,57,0.00,,,0.00,WUHU216HW,2013-09-20 18:52:00,
2013-09-20 14:57:00,74.7,58.6,29.82,SE,135,1.1,1.8,57,0.00,,,0.00,WUHU216HW,2013-09-20 18:57:00,
2013-09-20 15:02:00,74.7,58.6,29.82,SE,129,1.3,1.8,57,0.00,,,0.00,WUHU216HW,2013-09-20 19:02:00,
2013-09-20 15:07:00,74.9,58.8,29.81,North,0,1.1,2.0,57,0.00,,,0.00,WUHU216HW,2013-09-20 19:07:00,
2013-09-20 15:12:00,75.1,59.0,29.81,SE,126,1.1,2.0,57,0.00,,,0.00,WUHU216HW,2013-09-20 19:12:00,
2013-09-20 15:17:00,75.1,59.0,29.81,South,180,0.4,1.3,57,0.00,,,0.00,WUHU216HW,2013-09-20 19:17:00,
2013-09-20 15:22:00,75.1,59.0,29.81,ESE,121,1.3,1.6,57,0.00,,,0.00,WUHU216HW,2013-09-20 19:22:00,
2013-09-20 15:27:00,75.1,59.0,29.81,SE,135,1.2,1.8,57,0.00,,,0.00,WUHU216HW,2013-09-20 19:27:00,
2013-09-20 15:32:00,75.2,59.1,29.81,SE,128,1.1,1.8,57,0.00,,,0.00,WUHU216HW,2013-09-20 19:32:00,
2013-09-20 15:37:00,75.4,59.3,29.81,ESE,113,1.8,1.8,57,0.00,,,0.00,WUHU216HW,2013-09-20 19:37:00,
2013-09-20 15:42:00,75.4,59.3,29.81,ESE,113,1.4,1.8,57,0.00,,,0.00,WUHU216HW,2013-09-20 19:42:00,
2013-09-20 15:47:00,75.6,59.0,29.81,SE,135,0.9,1.6,56,0.00,,,0.00,WUHU216HW,2013-09-20 19:47:00,
2013-09-20 15:52:00,75.8,59.2,29.81,ESE,113,0.0,1.3,56,0.00,,,0.00,WUHU216HW,2013-09-20 19:52:00,
2013-09-20 15:57:00,76.0,59.4,29.81,WSW,248,1.1,1.3,56,0.00,,,0.00,WUHU216HW,2013-09-20 19:57:00,
2013-09-20 16:02:00,76.3,60.1,29.81,SE,135,0.4,1.6,57,0.00,,,0.00,WUHU216HW,2013-09-20 20:02:00,
2013-09-20 16:07:00,76.5,60.3,29.81,ENE,75,0.9,1.8,57,0.00,,,0.00,WUHU216HW,2013-09-20 20:07:00,
2013-09-20 16:12:00,76.7,60.0,29.81,West,270,1.1,1.8,56,0.00,,,0.00,WUHU216HW,2013-09-20 20:12:00,
2013-09-20 16:17:00,77.0,60.3,29.81,SSW,203,0.4,1.1,56,0.00,,,0.00,WUHU216HW,2013-09-20 20:17:00,
2013-09-20 16:22:00,77.4,60.7,29.81,SE,135,0.6,1.1,56,0.00,,,0.00,WUHU216HW,2013-09-20 20:22:00,
2013-09-20 16:27:00,77.4,60.7,29.81,NNW,338,0.4,1.8,56,0.00,,,0.00,WUHU216HW,2013-09-20 20:27:00,
2013-09-20 16:32:00,77.8,60.6,29.81,SE,135,0.3,1.8,55,0.00,,,0.00,WUHU216HW,2013-09-20 20:32:00,
2013-09-20 16:37:00,77.9,60.7,29.81,NW,315,0.7,0.9,55,0.00,,,0.00,WUHU216HW,2013-09-20 20:37:00,
2013-09-20 16:42:00,78.1,60.8,29.81,SSE,158,0.0,0.9,55,0.00,,,0.00,WUHU216HW,2013-09-20 20:42:00,
2013-09-20 16:47:00,78.1,60.8,29.80,SE,135,0.9,0.9,55,0.00,,,0.00,WUHU216HW,2013-09-20 20:47:00,
2013-09-20 16:52:00,78.3,61.0,29.80,SE,135,1.6,1.6,55,0.00,,,0.00,WUHU216HW,2013-09-20 20:52:00,
2013-09-20 16:57:00,78.3,61.0,29.80,SE,135,1.5,1.8,55,0.00,,,0.00,WUHU216HW,2013-09-20 20:57:00,
2013-09-20 17:02:00,78.1,60.8,29.80,SE,135,1.3,1.8,55,0.00,,,0.00,WUHU216HW,2013-09-20 21:02:00,
2013-09-20 17:07:00,78.1,60.8,29.80,ESE,109,0.6,1.3,55,0.00,,,0.00,WUHU216HW,2013-09-20 21:07:00,
2013-09-20 17:12:00,78.1,61.3,29.81,SE,135,0.7,1.3,56,0.00,,,0.00,WUHU216HW,2013-09-20 21:12:00,
2013-09-20 17:17:00,77.9,61.2,29.81,SE,135,0.9,1.1,56,0.00,,,0.00,WUHU216HW,2013-09-20 21:17:00,
2013-09-20 17:22:00,77.8,61.1,29.81,SE,135,1.5,1.6,56,0.00,,,0.00,WUHU216HW,2013-09-20 21:22:00,
2013-09-20 17:27:00,77.6,60.4,29.81,SE,135,1.0,1.8,55,0.00,,,0.00,WUHU216HW,2013-09-20 21:27:00,
2013-09-20 17:32:00,77.4,60.7,29.81,SE,135,1.2,1.8,56,0.00,,,0.00,WUHU216HW,2013-09-20 21:32:00,
2013-09-20 17:37:00,77.0,60.3,29.81,SE,135,1.2,1.3,56,0.00,,,0.00,WUHU216HW,2013-09-20 21:37:00,
2013-09-20 17:42:00,76.7,60.0,29.81,SE,135,1.1,1.3,56,0.00,,,0.00,WUHU216HW,2013-09-20 21:42:00,
2013-09-20 17:47:00,76.5,59.8,29.81,SE,135,1.0,1.1,56,0.00,,,0.00,WUHU216HW,2013-09-20 21:47:00,
2013-09-20 17:52:00,76.0,59.9,29.81,SE,135,1.1,1.1,57,0.00,,,0.00,WUHU216HW,2013-09-20 21:52:00,
2013-09-20 17:57:00,75.6,59.5,29.81,ESE,113,1.3,1.3,57,0.00,,,0.00,WUHU216HW,2013-09-20 21:57:00,
2013-09-20 18:02:00,75.4,59.3,29.82,SE,135,1.1,1.3,57,0.00,,,0.00,WUHU216HW,2013-09-20 22:02:00,
2013-09-20 18:07:00,75.2,59.1,29.82,SE,135,1.1,1.1,57,0.00,,,0.00,WUHU216HW,2013-09-20 22:07:00,
2013-09-20 18:12:00,74.9,58.8,29.81,SE,135,0.9,1.1,57,0.00,,,0.00,WUHU216HW,2013-09-20 22:12:00,
2013-09-20 18:17:00,74.7,58.6,29.81,SE,135,1.0,1.1,57,0.00,,,0.00,WUHU216HW,2013-09-20 22:17:00,
2013-09-20 18:22:00,74.3,58.3,29.81,SE,135,0.9,1.1,57,0.00,,,0.00,WUHU216HW,2013-09-20 22:22:00,
2013-09-20 18:27:00,74.0,58.4,29.81,ESE,113,1.1,1.1,58,0.00,,,0.00,WUHU216HW,2013-09-20 22:27:00,
2013-09-20 18:32:00,73.6,58.1,29.81,ESE,113,0.0,1.1,58,0.00,,,0.00,WUHU216HW,2013-09-20 22:32:00,
2013-09-20 18:37:00,73.1,57.6,29.82,ESE,113,0.0,0.7,58,0.00,,,0.00,WUHU216HW,2013-09-20 22:37:00,
2013-09-20 18:42:00,72.5,57.0,29.82,ESE,113,0.0,0.2,58,0.00,,,0.00,WUHU216HW,2013-09-20 22:42:00,
2013-09-20 18:47:00,72.0,56.6,29.82,ESE,113,0.0,0.2,58,0.00,,,0.00,WUHU216HW,2013-09-20 22:47:00,
2013-09-20 18:52:00,71.6,56.2,29.82,ESE,113,0.4,0.7,58,0.00,,,0.00,WUHU216HW,2013-09-20 22:52:00,
2013-09-20 18:57:00,71.3,55.9,29.82,ESE,113,0.0,0.7,58,0.00,,,0.00,WUHU216HW,2013-09-20 22:57:00,
2013-09-20 19:02:00,71.1,55.7,29.81,South,180,0.0,0.0,58,0.00,,,0.00,WUHU216HW,2013-09-20 23:02:00,
2013-09-20 19:07:00,70.7,54.9,29.82,South,180,0.0,0.0,57,0.00,,,0.00,WUHU216HW,2013-09-20 23:07:00,
2013-09-20 19:12:00,70.2,54.4,29.82,South,180,0.0,0.0,57,0.00,,,0.00,WUHU216HW,2013-09-20 23:12:00,
2013-09-20 19:17:00,69.8,54.0,29.82,South,180,0.0,0.0,57,0.00,,,0.00,WUHU216HW,2013-09-20 23:17:00,
2013-09-20 19:22:00,69.5,53.7,29.82,South,180,0.0,0.0,57,0.00,,,0.00,WUHU216HW,2013-09-20 23:22:00,
2013-09-20 19:27:00,69.1,53.8,29.82,South,180,0.0,0.0,58,0.00,,,0.00,WUHU216HW,2013-09-20 23:27:00,
2013-09-20 19:32:00,68.8,53.6,29.82,South,180,0.0,0.0,58,0.00,,,0.00,WUHU216HW,2013-09-20 23:32:00,
2013-09-20 19:37:00,68.4,53.2,29.83,SE,135,0.0,0.0,58,0.00,,,0.00,WUHU216HW,2013-09-20 23:37:00,
2013-09-20 19:42:00,68.0,52.3,29.83,SE,135,0.0,0.0,57,0.00,,,0.00,WUHU216HW,2013-09-20 23:42:00,
2013-09-20 19:47:00,67.9,52.2,29.83,SE,135,0.0,0.0,57,0.00,,,0.00,WUHU216HW,2013-09-20 23:47:00,
2013-09-20 19:52:00,67.7,52.1,29.83,SE,135,0.0,0.0,57,0.00,,,0.00,WUHU216HW,2013-09-20 23:52:00,
2013-09-20 19:57:00,67.3,51.7,29.83,SE,135,0.0,0.0,57,0.00,,,0.00,WUHU216HW,2013-09-20 23:57:00,
2013-09-20 20:02:00,67.0,51.4,29.83,SE,135,0.0,0.0,57,0.00,,,0.00,WUHU216HW,2013-09-21 00:02:00,
2013-09-20 20:07:00,66.6,51.0,29.84,SE,135,0.0,0.0,57,0.00,,,0.00,WUHU216HW,2013-09-21 00:07:00,
2013-09-20 20:12:00,66.4,50.8,29.84,SE,135,0.0,0.0,57,0.00,,,0.00,WUHU216HW,2013-09-21 00:12:00,
2013-09-20 20:17:00,66.1,50.6,29.83,SE,135,0.0,0.0,57,0.00,,,0.00,WUHU216HW,2013-09-21 00:17:00,
2013-09-20 20:22:00,65.7,50.2,29.83,SE,135,0.0,0.0,57,0.00,,,0.00,WUHU216HW,2013-09-21 00:22:00,
2013-09-20 20:27:00,65.3,49.3,29.83,SE,135,0.4,0.4,56,0.00,,,0.00,WUHU216HW,2013-09-21 00:27:00,
2013-09-20 20:32:00,65.2,49.2,29.83,ESE,113,0.0,0.4,56,0.00,,,0.00,WUHU216HW,2013-09-21 00:32:00,
2013-09-20 20:37:00,64.8,48.9,29.83,ESE,113,0.0,0.4,56,0.00,,,0.00,WUHU216HW,2013-09-21 00:37:00,
2013-09-20 20:42:00,64.4,48.5,29.84,ESE,113,0.0,0.0,56,0.00,,,0.00,WUHU216HW,2013-09-21 00:42:00,
2013-09-20 20:47:00,64.3,47.9,29.84,ESE,113,0.0,0.0,55,0.00,,,0.00,WUHU216HW,2013-09-21 00:47:00,
2013-09-20 20:52:00,63.9,47.6,29.84,ESE,113,0.0,0.0,55,0.00,,,0.00,WUHU216HW,2013-09-21 00:52:00,
2013-09-20 20:57:00,63.7,47.4,29.84,ESE,113,0.0,0.0,55,0.00,,,0.00,WUHU216HW,2013-09-21 00:57:00,
2013-09-20 21:03:00,63.2,46.4,29.84,ESE,113,0.0,0.0,54,0.00,,,0.00,WUHU216HW,2013-09-21 01:03:00,
2013-09-20 21:08:00,63.0,46.2,29.84,ESE,113,0.0,0.0,54,0.00,,,0.00,WUHU216HW,2013-09-21 01:08:00,
2013-09-20 21:13:00,62.6,45.9,29.84,ESE,113,0.0,0.0,54,0.00,,,0.00,WUHU216HW,2013-09-21 01:13:00,
2013-09-20 21:18:00,62.5,45.3,29.84,SE,135,0.0,0.0,53,0.00,,,0.00,WUHU216HW,2013-09-21 01:18:00,
2013-09-20 21:23:00,62.3,45.1,29.84,SE,135,0.0,0.0,53,0.00,,,0.00,WUHU216HW,2013-09-21 01:23:00,
2013-09-20 21:28:00,62.3,44.6,29.84,SE,135,0.0,0.0,52,0.00,,,0.00,WUHU216HW,2013-09-21 01:28:00,
2013-09-20 21:33:00,62.1,44.4,29.84,SE,135,0.0,0.0,52,0.00,,,0.00,WUHU216HW,2013-09-21 01:33:00,
2013-09-20 21:38:00,61.9,44.3,29.84,SE,135,0.0,0.0,52,0.00,,,0.00,WUHU216HW,2013-09-21 01:38:00,
2013-09-20 21:43:00,61.7,43.6,29.84,SE,135,0.0,0.0,51,0.00,,,0.00,WUHU216HW,2013-09-21 01:43:00,
2013-09-20 21:48:00,61.6,43.5,29.84,SE,135,0.0,0.0,51,0.00,,,0.00,WUHU216HW,2013-09-21 01:48:00,
2013-09-20 21:53:00,61.4,43.3,29.83,SE,135,0.0,0.0,51,0.00,,,0.00,WUHU216HW,2013-09-21 01:53:00,
2013-09-20 21:58:00,61.2,42.6,29.83,SE,135,0.0,0.0,50,0.00,,,0.00,WUHU216HW,2013-09-21 01:58:00,
2013-09-20 22:03:00,61.0,42.4,29.83,SE,135,0.0,0.0,50,0.00,,,0.00,WUHU216HW,2013-09-21 02:03:00,
2013-09-20 22:08:00,60.8,41.7,29.83,SE,135,0.0,0.0,49,0.00,,,0.00,WUHU216HW,2013-09-21 02:08:00,
2013-09-20 22:13:00,60.7,41.6,29.83,SSW,203,0.0,0.0,49,0.00,,,0.00,WUHU216HW,2013-09-21 02:13:00,
2013-09-20 22:18:00,60.5,41.5,29.83,NW,315,0.0,0.0,49,0.00,,,0.00,WUHU216HW,2013-09-21 02:18:00,
2013-09-20 22:23:00,60.3,40.7,29.83,NW,315,0.0,0.0,49,0.00,,,0.00,WUHU216HW,2013-09-21 02:23:00,
2013-09-20 22:28:00,60.3,40.7,29.83,NW,315,0.0,0.0,49,0.00,,,0.00,WUHU216HW,2013-09-21 02:28:00,
2013-09-20 22:33:00,60.3,40.2,29.83,NW,315,0.0,0.0,48,0.00,,,0.00,WUHU216HW,2013-09-21 02:33:00,
2013-09-20 22:38:00,60.1,39.5,29.83,NW,315,0.0,0.0,47,0.00,,,0.00,WUHU216HW,2013-09-21 02:38:00,
2013-09-20 22:43:00,60.1,39.5,29.83,NW,315,0.0,0.0,47,0.00,,,0.00,WUHU216HW,2013-09-21 02:43:00,
2013-09-20 22:48:00,60.1,39.0,29.83,East,90,0.0,0.0,46,0.00,,,0.00,WUHU216HW,2013-09-21 02:48:00,
2013-09-20 22:53:00,59.9,38.8,29.83,East,90,0.2,0.2,46,0.00,,,0.00,WUHU216HW,2013-09-21 02:53:00,
2013-09-20 22:58:00,59.8,38.7,29.82,SW,225,0.0,0.2,46,0.00,,,0.00,WUHU216HW,2013-09-21 02:58:00,
2013-09-20 23:03:00,59.8,38.7,29.82,SW,225,0.0,0.0,46,0.00,,,0.00,WUHU216HW,2013-09-21 03:03:00,
2013-09-20 23:08:00,59.6,37.9,29.82,SW,225,0.0,0.0,45,0.00,,,0.00,WUHU216HW,2013-09-21 03:08:00,
2013-09-20 23:13:00,59.4,37.8,29.82,SW,225,0.0,0.0,45,0.00,,,0.00,WUHU216HW,2013-09-21 03:13:00,
2013-09-20 23:18:00,59.4,37.8,29.82,SW,225,0.0,0.0,45,0.00,,,0.00,WUHU216HW,2013-09-21 03:18:00,
2013-09-20 23:23:00,59.2,37.6,29.82,SW,225,0.0,0.0,45,0.00,,,0.00,WUHU216HW,2013-09-21 03:23:00,
2013-09-20 23:28:00,59.0,37.4,29.82,SSW,203,0.0,0.0,45,0.00,,,0.00,WUHU216HW,2013-09-21 03:28:00,
2013-09-20 23:33:00,59.0,37.4,29.82,SSW,203,0.0,0.0,45,0.00,,,0.00,WUHU216HW,2013-09-21 03:33:00,
2013-09-20 23:38:00,58.9,37.3,29.82,SSW,203,0.0,0.0,45,0.00,,,0.00,WUHU216HW,2013-09-21 03:38:00,
2013-09-20 23:43:00,58.7,37.1,29.82,SSW,203,0.0,0.0,45,0.00,,,0.00,WUHU216HW,2013-09-21 03:43:00,
2013-09-20 23:48:00,58.7,36.6,29.82,SSW,203,0.0,0.0,44,0.00,,,0.00,WUHU216HW,2013-09-21 03:48:00,
2013-09-20 23:53:00,58.5,36.4,29.82,SW,225,0.0,0.0,44,0.00,,,0.00,WUHU216HW,2013-09-21 03:53:00,
2013-09-20 23:58:00,58.3,36.2,29.82,SW,225,0.0,0.0,44,0.00,,,0.00,WUHU216HW,2013-09-21 03:58:00,